Tracking 19832 objects as of 25-Aug-2019
HD Live streaming from Space Station
objects crossing your sky now

FENGYUN 1C DEB

Track FENGYUN 1C DEB now!
10-day predictions


NORAD ID: 29801
Int'l Code: 1999-025CT
Perigee: 709.9 km
Apogee: 863.4 km
Inclination: 98.9 °
Period: 100.4 minutes
Semi major axis: 7157 km
RCS: 0.105 m2 (medium)
Launch date: May 10, 1999
Source: People's Republic of China (PRC)
Launch site: Taiyaun Space Center, China (TSC)

Note: This is SATELLITE DEBRIS
aabbcc
Your satellite tracking list
Your tracking list is empty




NASA's NSSDC Master Catalog

Two Line Element Set (TLE):
1 29801U 99025CT  19236.90961633  .00000015  00000-0  21483-4 0  9991
2 29801  98.9405  35.0524 0107207 176.1015 310.2985 14.33659882659562
Source of the keplerian elements: AFSPC